SENTINEL-2B (42063 NORAD) Tracking and Keplerian Element Data

This shows tracking and keplerian element data for the satellite.

Feedback or suggestion? Click here.




ElementValue
Catalog42063
NameSENTINEL-2B
Epoch Orbit11092
Epoch Day111.7110834
Epoch Year2019
RAAN187.0226
Inclination98.5702
Eccentricity0.0001483
Argument of Perigee84.5271
Mean Anonmoly275.6083
Mean Motion14.30815074
Decay Rate1.1E-07
L11 42063U 17013A 19111.71108340 .00000011 00000-0 21005-4 0 9998
L22 42063 98.5702 187.0226 0001483 84.5271 275.6083 14.30815074110924

Live tracking and technical data element details for SENTINEL-2B (NORAD 42063). SENTINEL-2B can be tracked NOW for your location showing map with azimuth and elevation plus other details from your city location.

Track the satellite on the map from your city or location and see movement details for azimuth, elevation, latitude, longitude, range, height, and movement on the map or in text.







IsCatalogInMostPopularTable: catalog: 42063, numindb: 200
Update: records affected: 1



GetName: 42063 SENTINEL-2B

Hit Count: updated at: Tue, 23 Apr 2019 03:06:43 GMT